sat.trackr.live / text

‹ back to catalog

ZHONGXING-19

NORAD 54230 · 2022-148A

PAYLOAD ACTIVE UNKNOWN

§ Identity

Operator
Country
PRC
Launch date
2022-11-05
Launch site
XICLF
Launch vehicle
Mass (kg)
RCS (m²)

Purposes: comms

External: N2YO · Heavens-Above · Gunter

§ Orbital elements

Epoch: 2026-05-25T02:48:20.710368Z

Period
1,436.09 min
Inclination
0.0148°
Eccentricity
0.0002112
Mean motion
1.00271962 rev/d
Perigee alt
35,777.6 km
Apogee alt
35,795.5 km
Semi-major
42,164.7 km
B*
0.0000e+0
RAAN
351.0803°
Arg perigee
84.9894°
Mean anomaly
11.9177°
Rev number
1,315

§ Raw data

ZHONGXING-191 54230U 22148A   26145.11690637 -.00000084  00000+0  00000+0 0  99932 54230   0.0148 351.0803 0002112  84.9894  11.9177  1.00271962 13151

JSON: /api/v1/satellites/54230 · /tle

For live sub-satellite position, see the globe view (requires WebGL).

§ Visibility from observer

Set your observer location to see the next 7 days of passes ≥ 10°. The values pass through the URL so the page stays shareable.

No JS? Fill the form by hand. The geolocation button needs JavaScript.